FENGYUN 3B

Last updated on Sat Aug 15 2026 00:02:40 GMT+0000 (Coordinated Universal Time)

1 37214U 10059A 26226.65628295 .00000117 00000+0 83707-4 0 9990 2 37214 98.9582 272.9068 0022596 23.6797 87.6146 14.14851972815695
UTC large
Height (km)
Speed (km/s)
/
Latitude / Longitude
Inclination (degrees)
Orbital Period (minutes)
Azimuth
Elevation
Range (km)
Doppler Factor

Next 0 passes for location: London (51.5072 / 0.1276)

No passes found over London.
FENGYUN 3B